Location: Ladd Observatory
(41.8387°N, 71.3996°W)
Time: 09:02:52
(UTC-04:00)

ISS - Visible Passes

Search period start: 23 October 2014 00:00
Search period end: 02 November 2014 00:00
Orbit: 413 x 416 km, 51.6° (Epoch: 23 October)

Date Brightness Start Highest point End Pass type
(mag) Time Alt. Az. Time Alt. Az. Time Alt. Az.
23 Oct -2.6 18:53:21 10° NW 18:56:31 38° NNE 18:58:03 24° E visible
23 Oct -0.1 20:30:12 10° WNW 20:30:55 15° W 20:30:55 15° W visible
24 Oct -2.6 19:40:50 10° WNW 19:44:05 50° SW 19:44:05 50° SW visible
25 Oct -3.3 18:51:36 10° NW 18:54:57 90° S 18:57:21 18° SE visible
26 Oct -0.8 19:39:43 10° W 19:42:08 19° SW 19:43:42 14° SSW visible
27 Oct -1.5 18:50:00 10° WNW 18:53:02 32° SW 18:56:02 10° SSE visible
29 Oct -0.1 18:49:17 10° WSW 18:50:45 12° SW 18:52:13 10° SSW visible
